Home > Weather > Pécs > Past weeks

Flag for Hungary Past Weather in Pécs, Hungary — Yesterday and Last 2 Weeks

Now
64 °F

Mild.


Feels Like: 64 °F
Forecast: 64 / 76 °F
Wind: 2 mph from Northeast

Location: Pecs / Pogany

Current Time: Jun 27, 2016 at 6:02:41 AM

Latest Report: Jun 27, 2016 at 5:00 AM


Visibility: N/A

Pressure: 29.96 "Hg

Humidity: 93%

Dew Point: 62 °F

Location of PécsLocation

Past Weather in Pécs — Graph

°F

Pécs Temperature Yesterday

Maximum temperature yesterday: 85 °F (at 5:00 PM)
Minimum temperature yesterday: 65 °F (at 10:00 PM)
Average temperature yesterday: 75 °F

High & Low Weather Summary for the Past Weeks

 TemperatureHumidityPressure
High91 °F (Jun 24, 5:00 PM)98% (Jun 21, 6:00 AM)30.24 "Hg (Jun 21, 6:00 AM)
Low56 °F (Jun 18, 5:00 AM)30% (Jun 18, 4:00 PM)29.53 "Hg (Jun 14, 5:00 PM)
Average71 °F70%29.91 "Hg
* Reported Jun 12 5:00 AM — Jun 27 5:00 AM, Pécs, Weather by CustomWeather, © 2016

Note: Actual official high and low records may vary slightly from our data, if they occured in-between our weather recording intervals... More about our weather records

Advertising

Pécs Weather History for the Previous 24 Hours

Scroll right to see more
 ConditionsComfort  
Time TempWeatherWind HumidityBarometerVisibility
5:00 AM
Mon, Jun 27
64 °FMild.2 mph93%29.96 "HgN/A
4:00 AM65 °FMild.2 mph90%29.96 "HgN/A
3:00 AM64 °FMild.2 mph93%29.98 "HgN/A
2:00 AM67 °FMild.3 mph86%29.96 "HgN/A
1:00 AM69 °FMild.3 mph76%29.93 "HgN/A
12:00 AM67 °FMild.2 mph84%29.96 "HgN/A
11:00 PM
Sun, Jun 26
67 °FMild.5 mph89%30.00 "HgN/A
10:00 PM65 °FMild.6 mph97%29.98 "HgN/A
9:00 PM78 °FWarm.2 mph69%29.93 "HgN/A
8:00 PM79 °FWarm.3 mph68%29.90 "HgN/A
5:00 PM85 °FPartly sunny.3 mph51%29.90 "Hg37 mi
4:00 PM84 °FPartly sunny.3 mph53%29.92 "Hg37 mi
3:00 PM83 °FOvercast.3 mph61%29.94 "Hg37 mi
2:00 PM83 °FOvercast.2 mph58%29.95 "Hg37 mi
1:00 PM83 °FOvercast.5 mph62%29.95 "Hg37 mi
12:00 PM81 °FOvercast.5 mph62%29.96 "Hg37 mi
11:00 AM79 °FOvercast.3 mph66%29.96 "Hg37 mi
10:00 AM78 °FOvercast.3 mph61%29.95 "Hg37 mi
9:00 AM75 °FPartly sunny.6 mph66%29.95 "Hg37 mi
8:00 AM76 °FPartly sunny.3 mph59%29.93 "Hg37 mi
7:00 AM73 °FMild.3 mph66%29.93 "HgN/A
6:00 AM69 °FMild.2 mph79%29.93 "HgN/A
Weather by CustomWeather, © 2016

See weather overviewHow to use our weather pages